Time,TemperatureF,DewpointF,PressureIn,WindDirection,WindDirectionDegrees,WindSpeedMPH,WindSpeedGustMPH,Humidity,HourlyPrecipIn,Conditions,Clouds,dailyrainin,SoftwareType,DateUTC
2013-03-12 00:00:00,47.8,45.9,29.92,West,273,7.0,7.0,93,0.20,,,0.00,Wunderground v.1.13,2013-03-12 04:00:00,
2013-03-12 00:02:00,47.8,45.9,29.92,West,274,6.0,11.0,93,0.19,,,0.01,Wunderground v.1.13,2013-03-12 04:02:00,
2013-03-12 00:03:00,47.7,45.8,29.92,West,273,6.0,11.0,93,0.19,,,0.01,Wunderground v.1.13,2013-03-12 04:03:00,
2013-03-12 00:08:00,47.5,45.6,29.91,West,273,6.0,12.0,93,0.14,,,0.02,Wunderground v.1.13,2013-03-12 04:08:00,
2013-03-12 00:09:00,47.4,45.5,29.91,West,275,6.0,12.0,93,0.14,,,0.02,Wunderground v.1.13,2013-03-12 04:09:00,
2013-03-12 00:14:00,46.9,44.7,29.92,WNW,288,9.0,16.0,92,0.12,,,0.03,Wunderground v.1.13,2013-03-12 04:14:00,
2013-03-12 00:20:00,46.0,43.8,29.92,West,276,11.0,11.0,92,0.07,,,0.04,Wunderground v.1.13,2013-03-12 04:20:00,
2013-03-12 00:26:00,45.4,42.9,29.92,West,273,10.0,11.0,91,0.07,,,0.04,Wunderground v.1.13,2013-03-12 04:26:00,
2013-03-12 00:31:00,45.1,42.6,29.92,WNW,284,9.0,11.0,91,0.04,,,0.04,Wunderground v.1.13,2013-03-12 04:31:00,
2013-03-12 00:37:00,45.0,42.5,29.92,West,277,7.0,11.0,91,0.00,,,0.04,Wunderground v.1.13,2013-03-12 04:37:00,
2013-03-12 00:43:00,44.7,42.2,29.92,West,272,6.0,11.0,91,0.00,,,0.04,Wunderground v.1.13,2013-03-12 04:43:00,
2013-03-12 00:48:00,44.6,42.1,29.92,West,274,6.0,11.0,91,0.00,,,0.04,Wunderground v.1.13,2013-03-12 04:48:00,
2013-03-12 00:54:00,44.6,42.1,29.94,West,263,5.0,11.0,91,0.00,,,0.05,Wunderground v.1.13,2013-03-12 04:54:00,
2013-03-12 01:00:00,44.5,42.0,29.94,WSW,249,5.0,11.0,91,0.00,,,0.05,Wunderground v.1.13,2013-03-12 05:00:00,
2013-03-12 01:05:00,44.4,41.9,29.92,West,265,4.0,4.0,91,0.00,,,0.05,Wunderground v.1.13,2013-03-12 05:05:00,
2013-03-12 01:11:00,44.3,41.8,29.92,West,265,2.0,11.0,91,0.00,,,0.06,Wunderground v.1.13,2013-03-12 05:11:00,
2013-03-12 01:17:00,44.2,41.7,29.92,West,266,2.0,11.0,91,0.00,,,0.06,Wunderground v.1.13,2013-03-12 05:17:00,
2013-03-12 01:22:00,44.0,41.5,29.92,West,266,2.0,11.0,91,0.00,,,0.06,Wunderground v.1.13,2013-03-12 05:22:00,
2013-03-12 01:28:00,44.0,41.5,29.92,West,266,2.0,11.0,91,0.00,,,0.06,Wunderground v.1.13,2013-03-12 05:28:00,
2013-03-12 01:34:00,43.9,41.7,29.93,West,266,3.0,11.0,92,0.00,,,0.06,Wunderground v.1.13,2013-03-12 05:34:00,
2013-03-12 01:39:00,43.8,41.6,29.93,West,261,3.0,11.0,92,0.00,,,0.06,Wunderground v.1.13,2013-03-12 05:39:00,
2013-03-12 01:44:00,43.8,41.6,29.94,West,261,4.0,11.0,92,0.00,,,0.06,Wunderground v.1.13,2013-03-12 05:44:00,
2013-03-12 01:50:00,43.6,41.4,29.94,West,261,5.0,11.0,92,0.00,,,0.06,Wunderground v.1.13,2013-03-12 05:50:00,
2013-03-12 01:56:00,43.6,41.4,29.93,WNW,293,5.0,11.0,92,0.00,,,0.06,Wunderground v.1.13,2013-03-12 05:56:00,
2013-03-12 02:02:00,43.2,41.0,29.93,WNW,289,7.0,12.0,92,0.00,,,0.06,Wunderground v.1.13,2013-03-12 06:02:00,
2013-03-12 02:07:00,42.8,40.4,29.94,WNW,294,9.0,11.0,91,0.00,,,0.06,Wunderground v.1.13,2013-03-12 06:07:00,
2013-03-12 02:13:00,42.5,40.1,29.94,NW,313,9.0,13.0,91,0.00,,,0.06,Wunderground v.1.13,2013-03-12 06:13:00,
2013-03-12 02:18:00,42.4,40.0,29.95,WNW,284,9.0,11.0,91,0.00,,,0.06,Wunderground v.1.13,2013-03-12 06:18:00,
2013-03-12 02:24:00,42.2,39.5,29.95,WNW,284,8.0,11.0,90,0.00,,,0.06,Wunderground v.1.13,2013-03-12 06:24:00,
2013-03-12 02:29:00,42.0,39.3,29.95,WNW,298,9.0,12.0,90,0.00,,,0.06,Wunderground v.1.13,2013-03-12 06:29:00,
2013-03-12 02:35:00,41.8,39.1,29.95,WNW,287,8.0,8.0,90,0.00,,,0.06,Wunderground v.1.13,2013-03-12 06:35:00,
2013-03-12 02:40:00,41.8,39.1,29.95,WNW,286,6.0,6.0,90,0.00,,,0.06,Wunderground v.1.13,2013-03-12 06:40:00,
2013-03-12 02:46:00,41.7,39.0,29.94,WNW,286,4.0,11.0,90,0.00,,,0.06,Wunderground v.1.13,2013-03-12 06:46:00,
2013-03-12 02:51:00,41.7,39.0,29.95,WNW,286,3.0,11.0,90,0.00,,,0.06,Wunderground v.1.13,2013-03-12 06:51:00,
2013-03-12 02:57:00,41.7,39.0,29.95,WNW,286,3.0,11.0,90,0.00,,,0.06,Wunderground v.1.13,2013-03-12 06:57:00,
2013-03-12 03:02:00,41.6,38.9,29.95,WNW,285,3.0,11.0,90,0.00,,,0.06,Wunderground v.1.13,2013-03-12 07:02:00,
2013-03-12 03:08:00,41.5,38.8,29.95,WNW,285,3.0,11.0,90,0.00,,,0.06,Wunderground v.1.13,2013-03-12 07:08:00,
2013-03-12 03:13:00,41.4,38.7,29.95,West,278,3.0,11.0,90,0.00,,,0.06,Wunderground v.1.13,2013-03-12 07:13:00,
2013-03-12 03:19:00,41.2,38.5,29.95,West,278,4.0,11.0,90,0.00,,,0.07,Wunderground v.1.13,2013-03-12 07:19:00,
2013-03-12 03:24:00,41.1,38.4,29.95,West,279,4.0,11.0,90,0.00,,,0.07,Wunderground v.1.13,2013-03-12 07:24:00,
2013-03-12 03:29:00,41.0,38.3,29.95,West,279,5.0,11.0,90,0.00,,,0.07,Wunderground v.1.13,2013-03-12 07:29:00,
2013-03-12 03:35:00,40.8,38.1,29.95,West,279,3.0,11.0,90,0.00,,,0.07,Wunderground v.1.13,2013-03-12 07:35:00,
2013-03-12 03:40:00,40.7,38.3,29.96,West,279,3.0,11.0,91,0.00,,,0.07,Wunderground v.1.13,2013-03-12 07:40:00,
2013-03-12 03:45:00,40.6,37.9,29.96,West,279,2.0,2.0,90,0.00,,,0.07,Wunderground v.1.13,2013-03-12 07:45:00,
2013-03-12 03:51:00,40.5,38.1,29.95,West,279,1.0,11.0,91,0.00,,,0.07,Wunderground v.1.13,2013-03-12 07:51:00,
2013-03-12 03:56:00,40.4,38.0,29.95,West,279,0.0,11.0,91,0.00,,,0.07,Wunderground v.1.13,2013-03-12 07:56:00,
2013-03-12 04:01:00,40.4,38.0,29.95,West,279,0.0,11.0,91,0.00,,,0.07,Wunderground v.1.13,2013-03-12 08:01:00,
2013-03-12 04:07:00,40.3,37.9,29.95,West,279,0.0,11.0,91,0.00,,,0.07,Wunderground v.1.13,2013-03-12 08:07:00,
2013-03-12 04:12:00,40.2,37.8,29.95,West,279,1.0,11.0,91,0.00,,,0.07,Wunderground v.1.13,2013-03-12 08:12:00,
2013-03-12 04:17:00,40.3,37.9,29.95,West,279,1.0,11.0,91,0.00,,,0.07,Wunderground v.1.13,2013-03-12 08:17:00,
2013-03-12 04:23:00,40.2,37.8,29.95,West,279,1.0,11.0,91,0.00,,,0.07,Wunderground v.1.13,2013-03-12 08:23:00,
2013-03-12 04:29:00,40.2,37.8,29.96,West,279,1.0,11.0,91,0.00,,,0.07,Wunderground v.1.13,2013-03-12 08:29:00,
2013-03-12 04:34:00,40.1,37.7,29.96,West,279,1.0,11.0,91,0.00,,,0.07,Wunderground v.1.13,2013-03-12 08:34:00,
2013-03-12 04:39:00,40.1,38.0,29.96,West,279,2.0,11.0,92,0.00,,,0.07,Wunderground v.1.13,2013-03-12 08:39:00,
2013-03-12 04:45:00,40.0,37.6,29.96,West,279,1.0,1.0,91,0.00,,,0.07,Wunderground v.1.13,2013-03-12 08:45:00,
2013-03-12 04:50:00,39.9,37.5,29.96,West,279,1.0,11.0,91,0.00,,,0.07,Wunderground v.1.13,2013-03-12 08:50:00,
2013-03-12 04:55:00,39.9,37.5,29.96,West,279,1.0,11.0,91,0.00,,,0.07,Wunderground v.1.13,2013-03-12 08:55:00,
2013-03-12 05:01:00,39.9,37.5,29.97,West,279,1.0,11.0,91,0.00,,,0.07,Wunderground v.1.13,2013-03-12 09:01:00,
2013-03-12 05:06:00,39.8,37.4,29.97,West,279,1.0,11.0,91,0.00,,,0.07,Wunderground v.1.13,2013-03-12 09:06:00,
2013-03-12 05:12:00,39.8,37.4,29.97,West,279,2.0,11.0,91,0.00,,,0.07,Wunderground v.1.13,2013-03-12 09:12:00,
2013-03-12 05:17:00,39.7,37.3,29.97,West,279,2.0,11.0,91,0.00,,,0.07,Wunderground v.1.13,2013-03-12 09:17:00,
2013-03-12 05:23:00,39.6,36.9,29.97,WNW,293,5.0,11.0,90,0.00,,,0.07,Wunderground v.1.13,2013-03-12 09:23:00,
2013-03-12 05:28:00,39.5,36.8,29.98,WNW,298,6.0,11.0,90,0.00,,,0.07,Wunderground v.1.13,2013-03-12 09:28:00,
2013-03-12 05:34:00,39.5,36.5,29.98,WNW,296,6.0,11.0,89,0.00,,,0.07,Wunderground v.1.13,2013-03-12 09:34:00,
2013-03-12 05:39:00,39.5,36.5,29.98,WNW,292,5.0,11.0,89,0.00,,,0.07,Wunderground v.1.13,2013-03-12 09:39:00,
2013-03-12 05:45:00,39.4,36.1,29.98,WNW,298,5.0,5.0,88,0.00,,,0.07,Wunderground v.1.13,2013-03-12 09:45:00,
2013-03-12 05:50:00,39.4,36.1,29.98,WNW,298,3.0,11.0,88,0.00,,,0.07,Wunderground v.1.13,2013-03-12 09:50:00,
2013-03-12 05:55:00,39.4,36.1,29.98,WNW,298,2.0,2.0,88,0.00,,,0.07,Wunderground v.1.13,2013-03-12 09:55:00,
2013-03-12 06:01:00,39.3,36.0,29.98,WNW,298,1.0,11.0,88,0.00,,,0.07,Wunderground v.1.13,2013-03-12 10:01:00,
2013-03-12 06:06:00,39.3,36.0,29.98,WNW,298,1.0,11.0,88,0.00,,,0.07,Wunderground v.1.13,2013-03-12 10:06:00,
2013-03-12 06:12:00,39.2,35.9,29.98,WNW,298,1.0,11.0,88,0.00,,,0.07,Wunderground v.1.13,2013-03-12 10:12:00,
2013-03-12 06:18:00,39.2,35.9,29.99,WNW,298,1.0,11.0,88,0.00,,,0.07,Wunderground v.1.13,2013-03-12 10:18:00,
2013-03-12 06:23:00,39.1,35.8,29.99,WNW,298,2.0,11.0,88,0.00,,,0.07,Wunderground v.1.13,2013-03-12 10:23:00,
2013-03-12 06:28:00,39.1,35.8,30.00,WNW,298,2.0,11.0,88,0.00,,,0.07,Wunderground v.1.13,2013-03-12 10:28:00,
2013-03-12 06:34:00,39.1,35.8,30.00,WNW,298,0.0,11.0,88,0.00,,,0.07,Wunderground v.1.13,2013-03-12 10:34:00,
2013-03-12 06:39:00,39.2,35.9,30.00,WNW,298,0.0,11.0,88,0.00,,,0.07,Wunderground v.1.13,2013-03-12 10:39:00,
2013-03-12 06:44:00,39.2,35.9,30.00,WNW,298,0.0,11.0,88,0.00,,,0.07,Wunderground v.1.13,2013-03-12 10:44:00,
2013-03-12 06:50:00,38.9,35.4,30.00,WNW,298,1.0,11.0,87,0.00,,,0.07,Wunderground v.1.13,2013-03-12 10:50:00,
2013-03-12 06:55:00,38.7,35.2,30.01,WNW,298,2.0,11.0,87,0.00,,,0.07,Wunderground v.1.13,2013-03-12 10:55:00,
2013-03-12 07:00:00,38.7,34.9,30.01,WNW,298,1.0,1.0,86,0.00,,,0.07,Wunderground v.1.13,2013-03-12 11:00:00,
2013-03-12 07:06:00,38.6,34.8,30.02,WNW,298,1.0,11.0,86,0.00,,,0.07,Wunderground v.1.13,2013-03-12 11:06:00,
2013-03-12 07:11:00,38.6,34.8,30.02,WNW,298,2.0,11.0,86,0.00,,,0.07,Wunderground v.1.13,2013-03-12 11:11:00,
2013-03-12 07:16:00,38.6,34.8,30.02,WNW,298,2.0,3.0,86,0.00,,,0.07,Wunderground v.1.13,2013-03-12 11:16:00,
2013-03-12 07:22:00,38.5,34.4,30.03,WNW,296,3.0,6.0,85,0.00,,,0.07,Wunderground v.1.13,2013-03-12 11:22:00,
2013-03-12 07:28:00,38.5,34.4,30.04,WNW,296,3.0,11.0,85,0.00,,,0.07,Wunderground v.1.13,2013-03-12 11:28:00,
2013-03-12 07:34:00,38.3,33.9,30.04,WNW,291,4.0,11.0,84,0.00,,,0.07,Wunderground v.1.13,2013-03-12 11:34:00,
2013-03-12 07:39:00,38.2,33.8,30.04,WNW,290,4.0,11.0,84,0.00,,,0.07,Wunderground v.1.13,2013-03-12 11:39:00,
2013-03-12 07:45:00,38.2,33.5,30.04,WNW,288,4.0,11.0,83,0.00,,,0.07,Wunderground v.1.13,2013-03-12 11:45:00,
2013-03-12 07:51:00,38.1,33.4,30.04,WNW,288,4.0,11.0,83,0.00,,,0.07,Wunderground v.1.13,2013-03-12 11:51:00,
2013-03-12 07:56:00,38.0,33.3,30.03,WNW,288,3.0,11.0,83,0.00,,,0.07,Wunderground v.1.13,2013-03-12 11:56:00,
2013-03-12 08:01:00,38.0,33.3,30.04,WNW,288,2.0,11.0,83,0.00,,,0.07,Wunderground v.1.13,2013-03-12 12:01:00,
2013-03-12 08:07:00,38.0,33.3,30.04,WNW,288,1.0,11.0,83,0.00,,,0.07,Wunderground v.1.13,2013-03-12 12:07:00,
2013-03-12 08:12:00,38.0,33.3,30.04,WNW,288,0.0,11.0,83,0.00,,,0.07,Wunderground v.1.13,2013-03-12 12:12:00,
2013-03-12 08:18:00,37.9,33.2,30.04,North,360,1.0,11.0,83,0.00,,,0.07,Wunderground v.1.13,2013-03-12 12:18:00,
2013-03-12 08:23:00,37.9,33.2,30.05,North,355,1.0,11.0,83,0.00,,,0.07,Wunderground v.1.13,2013-03-12 12:23:00,
2013-03-12 08:29:00,37.9,33.2,30.05,NW,312,2.0,11.0,83,0.00,,,0.07,Wunderground v.1.13,2013-03-12 12:29:00,
2013-03-12 08:34:00,37.9,33.2,30.05,WNW,300,3.0,11.0,83,0.00,,,0.07,Wunderground v.1.13,2013-03-12 12:34:00,
2013-03-12 08:40:00,38.0,33.3,30.05,WNW,300,2.0,2.0,83,0.00,,,0.07,Wunderground v.1.13,2013-03-12 12:40:00,
2013-03-12 08:45:00,38.1,33.4,30.05,WNW,300,1.0,1.0,83,0.00,,,0.07,Wunderground v.1.13,2013-03-12 12:45:00,
2013-03-12 08:50:00,38.2,33.5,30.05,WNW,300,1.0,11.0,83,0.00,,,0.07,Wunderground v.1.13,2013-03-12 12:50:00,
2013-03-12 08:56:00,38.3,33.3,30.06,WNW,300,2.0,11.0,82,0.00,,,0.07,Wunderground v.1.13,2013-03-12 12:56:00,
2013-03-12 09:01:00,38.3,33.3,30.06,WNW,300,2.0,11.0,82,0.00,,,0.07,Wunderground v.1.13,2013-03-12 13:01:00,
2013-03-12 09:06:00,38.4,33.4,30.06,WNW,300,1.0,11.0,82,0.00,,,0.07,Wunderground v.1.13,2013-03-12 13:06:00,
2013-03-12 09:11:00,38.4,33.4,30.06,WNW,300,0.0,11.0,82,0.00,,,0.07,Wunderground v.1.13,2013-03-12 13:11:00,
2013-03-12 09:16:00,38.6,33.9,30.06,West,260,0.0,11.0,83,0.00,,,0.07,Wunderground v.1.13,2013-03-12 13:16:00,
2013-03-12 09:21:00,38.6,33.6,30.06,West,260,0.0,11.0,82,0.00,,,0.07,Wunderground v.1.13,2013-03-12 13:21:00,
2013-03-12 09:27:00,38.8,33.5,30.06,West,260,1.0,4.0,81,0.00,,,0.07,Wunderground v.1.13,2013-03-12 13:27:00,
2013-03-12 09:32:00,38.9,33.3,30.06,West,260,1.0,11.0,80,0.00,,,0.07,Wunderground v.1.13,2013-03-12 13:32:00,
2013-03-12 09:38:00,39.1,33.5,30.06,West,261,1.0,11.0,80,0.00,,,0.07,Wunderground v.1.13,2013-03-12 13:38:00,
2013-03-12 09:43:00,39.1,33.1,30.07,West,270,2.0,11.0,79,0.00,,,0.07,Wunderground v.1.13,2013-03-12 13:43:00,
2013-03-12 09:49:00,39.1,33.1,30.07,NW,305,3.0,11.0,79,0.00,,,0.07,Wunderground v.1.13,2013-03-12 13:49:00,
2013-03-12 09:55:00,39.1,33.1,30.07,WNW,303,3.0,11.0,79,0.00,,,0.07,Wunderground v.1.13,2013-03-12 13:55:00,
2013-03-12 10:00:00,39.3,33.3,30.07,WNW,303,2.0,2.0,79,0.00,,,0.07,Wunderground v.1.13,2013-03-12 14:00:00,
2013-03-12 10:05:00,39.5,33.2,30.07,WNW,303,1.0,11.0,78,0.00,,,0.07,Wunderground v.1.13,2013-03-12 14:05:00,
2013-03-12 10:11:00,39.7,33.4,30.07,WNW,303,0.0,11.0,78,0.00,,,0.07,Wunderground v.1.13,2013-03-12 14:11:00,
2013-03-12 10:16:00,39.8,33.2,30.07,NW,304,1.0,11.0,77,0.00,,,0.07,Wunderground v.1.13,2013-03-12 14:16:00,
2013-03-12 10:22:00,40.2,33.6,30.07,NW,304,1.0,11.0,77,0.00,,,0.07,Wunderground v.1.13,2013-03-12 14:22:00,
2013-03-12 10:28:00,40.2,33.2,30.08,NW,304,2.0,11.0,76,0.00,,,0.07,Wunderground v.1.13,2013-03-12 14:28:00,
2013-03-12 10:33:00,40.3,33.3,30.08,NW,304,2.0,11.0,76,0.00,,,0.07,Wunderground v.1.13,2013-03-12 14:33:00,
2013-03-12 10:39:00,40.4,33.4,30.08,WNW,303,2.0,11.0,76,0.00,,,0.07,Wunderground v.1.13,2013-03-12 14:39:00,
2013-03-12 10:45:00,40.6,33.6,30.08,WNW,303,2.0,11.0,76,0.00,,,0.07,Wunderground v.1.13,2013-03-12 14:45:00,
2013-03-12 10:51:00,41.0,33.7,30.08,WNW,303,2.0,11.0,75,0.00,,,0.07,Wunderground v.1.13,2013-03-12 14:51:00,
2013-03-12 10:56:00,41.2,33.9,30.08,WNW,294,2.0,11.0,75,0.00,,,0.07,Wunderground v.1.13,2013-03-12 14:56:00,
2013-03-12 11:02:00,41.3,33.6,30.09,WNW,291,4.0,11.0,74,0.00,,,0.07,Wunderground v.1.13,2013-03-12 15:02:00,
2013-03-12 11:07:00,41.3,33.6,30.09,WNW,290,4.0,11.0,74,0.00,,,0.07,Wunderground v.1.13,2013-03-12 15:07:00,
2013-03-12 11:12:00,41.2,33.5,30.09,WNW,284,5.0,11.0,74,0.00,,,0.07,Wunderground v.1.13,2013-03-12 15:12:00,
2013-03-12 11:18:00,41.3,34.0,30.09,WNW,284,4.0,11.0,75,0.00,,,0.07,Wunderground v.1.13,2013-03-12 15:18:00,
2013-03-12 11:23:00,41.5,34.2,30.09,WNW,286,3.0,11.0,75,0.00,,,0.07,Wunderground v.1.13,2013-03-12 15:23:00,
2013-03-12 11:29:00,41.9,34.2,30.09,WNW,286,2.0,11.0,74,0.00,,,0.07,Wunderground v.1.13,2013-03-12 15:29:00,
2013-03-12 11:35:00,42.5,34.8,30.09,West,277,2.0,11.0,74,0.00,,,0.07,Wunderground v.1.13,2013-03-12 15:35:00,
2013-03-12 11:41:00,43.0,34.9,30.09,West,277,4.0,11.0,73,0.00,,,0.07,Wunderground v.1.13,2013-03-12 15:41:00,
2013-03-12 11:47:00,43.0,34.2,30.09,West,278,4.0,11.0,71,0.00,,,0.07,Wunderground v.1.13,2013-03-12 15:47:00,
2013-03-12 11:53:00,43.0,34.2,30.09,West,279,4.0,11.0,71,0.00,,,0.07,Wunderground v.1.13,2013-03-12 15:53:00,
2013-03-12 11:59:00,42.9,34.5,30.10,WNW,287,5.0,11.0,72,0.00,,,0.07,Wunderground v.1.13,2013-03-12 15:59:00,
2013-03-12 12:04:00,42.5,33.8,30.10,NW,309,6.0,11.0,71,0.00,,,0.07,Wunderground v.1.13,2013-03-12 16:04:00,
2013-03-12 12:10:00,42.1,33.4,30.10,WNW,301,7.0,7.0,71,0.00,,,0.07,Wunderground v.1.13,2013-03-12 16:10:00,
2013-03-12 12:16:00,41.8,33.4,30.10,WNW,294,8.0,11.0,72,0.00,,,0.07,Wunderground v.1.13,2013-03-12 16:16:00,
2013-03-12 12:22:00,41.9,33.5,30.10,WNW,293,6.0,11.0,72,0.00,,,0.07,Wunderground v.1.13,2013-03-12 16:22:00,
2013-03-12 12:28:00,42.4,34.0,30.11,WNW,296,5.0,11.0,72,0.00,,,0.07,Wunderground v.1.13,2013-03-12 16:28:00,
2013-03-12 12:33:00,42.5,33.8,30.11,WNW,282,6.0,11.0,71,0.00,,,0.07,Wunderground v.1.13,2013-03-12 16:33:00,
2013-03-12 12:39:00,42.7,33.9,30.11,West,278,7.0,11.0,71,0.00,,,0.07,Wunderground v.1.13,2013-03-12 16:39:00,
2013-03-12 12:44:00,42.9,34.1,30.11,WNW,294,6.0,11.0,71,0.00,,,0.07,Wunderground v.1.13,2013-03-12 16:44:00,
2013-03-12 12:49:00,43.2,33.7,30.11,NW,320,6.0,11.0,69,0.00,,,0.07,Wunderground v.1.13,2013-03-12 16:49:00,
2013-03-12 12:55:00,43.7,34.6,30.11,NW,319,7.0,11.0,70,0.00,,,0.07,Wunderground v.1.13,2013-03-12 16:55:00,
2013-03-12 13:00:00,43.4,33.9,30.11,WNW,290,9.0,9.0,69,0.00,,,0.07,Wunderground v.1.13,2013-03-12 17:00:00,
2013-03-12 13:06:00,43.5,34.0,30.11,WNW,292,8.0,11.0,69,0.00,,,0.07,Wunderground v.1.13,2013-03-12 17:06:00,
2013-03-12 13:11:00,43.4,33.9,30.12,WNW,285,8.0,11.0,69,0.00,,,0.07,Wunderground v.1.13,2013-03-12 17:11:00,
2013-03-12 13:16:00,43.3,33.4,30.11,WNW,299,7.0,11.0,68,0.00,,,0.07,Wunderground v.1.13,2013-03-12 17:16:00,
2013-03-12 13:21:00,43.6,34.1,30.11,West,281,7.0,11.0,69,0.00,,,0.07,Wunderground v.1.13,2013-03-12 17:21:00,
2013-03-12 13:27:00,44.4,34.1,30.11,West,279,6.0,11.0,67,0.00,,,0.07,Wunderground v.1.13,2013-03-12 17:27:00,
2013-03-12 13:33:00,45.1,34.4,30.12,West,274,6.0,11.0,66,0.00,,,0.07,Wunderground v.1.13,2013-03-12 17:33:00,
2013-03-12 13:38:00,45.4,34.3,30.12,WNW,299,6.0,11.0,65,0.00,,,0.07,Wunderground v.1.13,2013-03-12 17:38:00,
2013-03-12 13:43:00,45.2,33.7,30.12,NW,318,6.0,11.0,64,0.00,,,0.07,Wunderground v.1.13,2013-03-12 17:43:00,
2013-03-12 13:49:00,45.6,34.9,30.12,West,273,5.0,11.0,66,0.00,,,0.07,Wunderground v.1.13,2013-03-12 17:49:00,
2013-03-12 13:55:00,46.5,34.6,30.11,West,264,4.0,4.0,63,0.00,,,0.07,Wunderground v.1.13,2013-03-12 17:55:00,
2013-03-12 14:00:00,47.6,35.2,30.11,North,360,4.0,11.0,62,0.00,,,0.07,Wunderground v.1.13,2013-03-12 18:00:00,
2013-03-12 14:06:00,47.0,34.6,30.11,WNW,290,5.0,11.0,62,0.00,,,0.07,Wunderground v.1.13,2013-03-12 18:06:00,
2013-03-12 14:11:00,47.1,34.7,30.11,WNW,284,7.0,11.0,62,0.00,,,0.07,Wunderground v.1.13,2013-03-12 18:11:00,
2013-03-12 14:16:00,46.9,34.6,30.11,West,263,5.0,11.0,62,0.00,,,0.07,Wunderground v.1.13,2013-03-12 18:16:00,
2013-03-12 14:21:00,47.3,35.3,30.11,NNW,338,4.0,11.0,63,0.00,,,0.07,Wunderground v.1.13,2013-03-12 18:21:00,
2013-03-12 14:26:00,47.8,35.4,30.11,West,280,6.0,11.0,62,0.00,,,0.07,Wunderground v.1.13,2013-03-12 18:26:00,
2013-03-12 14:32:00,47.9,34.3,30.11,WNW,287,6.0,11.0,59,0.00,,,0.07,Wunderground v.1.13,2013-03-12 18:32:00,
2013-03-12 14:38:00,47.8,34.6,30.10,WNW,293,6.0,11.0,60,0.00,,,0.07,Wunderground v.1.13,2013-03-12 18:38:00,
2013-03-12 14:43:00,47.7,34.5,30.10,NW,311,5.0,11.0,60,0.00,,,0.07,Wunderground v.1.13,2013-03-12 18:43:00,
2013-03-12 14:48:00,48.1,34.9,30.09,NW,309,3.0,11.0,60,0.00,,,0.07,Wunderground v.1.13,2013-03-12 18:48:00,
2013-03-12 14:54:00,49.0,35.3,30.09,WNW,286,4.0,11.0,59,0.00,,,0.07,Wunderground v.1.13,2013-03-12 18:54:00,
2013-03-12 15:00:00,49.6,35.8,30.09,West,269,5.0,5.0,59,0.00,,,0.07,Wunderground v.1.13,2013-03-12 19:00:00,
2013-03-12 15:05:00,50.1,36.7,30.09,WSW,257,5.0,5.0,60,0.00,,,0.07,Wunderground v.1.13,2013-03-12 19:05:00,
2013-03-12 15:10:00,50.1,35.0,30.09,WNW,293,5.0,11.0,56,0.00,,,0.07,Wunderground v.1.13,2013-03-12 19:10:00,
2013-03-12 15:16:00,50.1,35.0,30.09,West,269,5.0,11.0,56,0.00,,,0.07,Wunderground v.1.13,2013-03-12 19:16:00,
2013-03-12 15:22:00,50.1,35.0,30.09,WNW,298,5.0,11.0,56,0.00,,,0.07,Wunderground v.1.13,2013-03-12 19:22:00,
2013-03-12 15:27:00,49.8,34.7,30.08,NW,316,7.0,11.0,56,0.00,,,0.07,Wunderground v.1.13,2013-03-12 19:27:00,
2013-03-12 15:33:00,49.5,34.4,30.08,WSW,253,6.0,11.0,56,0.00,,,0.07,Wunderground v.1.13,2013-03-12 19:33:00,
2013-03-12 15:38:00,50.3,35.2,30.08,WNW,287,4.0,11.0,56,0.00,,,0.07,Wunderground v.1.13,2013-03-12 19:38:00,
2013-03-12 15:44:00,50.4,34.4,30.08,NW,315,4.0,11.0,54,0.00,,,0.07,Wunderground v.1.13,2013-03-12 19:44:00,
2013-03-12 15:49:00,50.3,35.2,30.08,NW,309,6.0,11.0,56,0.00,,,0.07,Wunderground v.1.13,2013-03-12 19:49:00,
2013-03-12 15:54:00,50.7,35.6,30.08,WNW,284,7.0,11.0,56,0.00,,,0.07,Wunderground v.1.13,2013-03-12 19:54:00,
2013-03-12 16:00:00,51.0,35.8,30.08,WNW,289,6.0,11.0,56,0.00,,,0.07,Wunderground v.1.13,2013-03-12 20:00:00,
2013-03-12 16:06:00,51.2,35.6,30.08,NW,317,5.0,11.0,55,0.00,,,0.07,Wunderground v.1.13,2013-03-12 20:06:00,
2013-03-12 16:11:00,51.3,35.7,30.08,WNW,287,6.0,11.0,55,0.00,,,0.07,Wunderground v.1.13,2013-03-12 20:11:00,
2013-03-12 16:17:00,50.6,35.0,30.08,WNW,296,8.0,11.0,55,0.00,,,0.07,Wunderground v.1.13,2013-03-12 20:17:00,
2013-03-12 16:22:00,50.5,34.5,30.08,NNW,348,8.0,13.0,54,0.00,,,0.07,Wunderground v.1.13,2013-03-12 20:22:00,
2013-03-12 16:28:00,50.8,36.1,30.08,WSW,251,6.0,11.0,57,0.00,,,0.07,Wunderground v.1.13,2013-03-12 20:28:00,
2013-03-12 16:33:00,51.5,35.9,30.08,West,279,4.0,11.0,55,0.00,,,0.07,Wunderground v.1.13,2013-03-12 20:33:00,
2013-03-12 16:38:00,51.8,35.7,30.08,West,277,5.0,12.0,54,0.00,,,0.07,Wunderground v.1.13,2013-03-12 20:38:00,
2013-03-12 16:44:00,51.7,35.1,30.08,NW,311,5.0,11.0,53,0.00,,,0.07,Wunderground v.1.13,2013-03-12 20:44:00,
2013-03-12 16:49:00,51.7,35.6,30.08,WNW,294,4.0,12.0,54,0.00,,,0.07,Wunderground v.1.13,2013-03-12 20:49:00,
2013-03-12 16:55:00,51.4,35.3,30.08,West,279,6.0,6.0,54,0.00,,,0.07,Wunderground v.1.13,2013-03-12 20:55:00,
2013-03-12 17:01:00,51.8,35.7,30.07,SW,219,5.0,9.0,54,0.00,,,0.07,Wunderground v.1.13,2013-03-12 21:01:00,
2013-03-12 17:06:00,52.1,35.9,30.08,WSW,238,5.0,11.0,54,0.00,,,0.07,Wunderground v.1.13,2013-03-12 21:06:00,
2013-03-12 17:11:00,52.0,35.9,30.08,West,275,6.0,11.0,54,0.00,,,0.07,Wunderground v.1.13,2013-03-12 21:11:00,
2013-03-12 17:17:00,51.5,34.9,30.08,WNW,296,7.0,11.0,53,0.00,,,0.07,Wunderground v.1.13,2013-03-12 21:17:00,
2013-03-12 17:22:00,51.3,35.2,30.08,WNW,298,7.0,11.0,54,0.00,,,0.07,Wunderground v.1.13,2013-03-12 21:22:00,
2013-03-12 17:28:00,51.2,34.6,30.08,West,271,6.0,12.0,53,0.00,,,0.07,Wunderground v.1.13,2013-03-12 21:28:00,
2013-03-12 17:33:00,51.3,34.7,30.08,NW,307,7.0,11.0,53,0.00,,,0.07,Wunderground v.1.13,2013-03-12 21:33:00,
2013-03-12 17:39:00,51.6,35.0,30.08,WNW,290,4.0,11.0,53,0.00,,,0.07,Wunderground v.1.13,2013-03-12 21:39:00,
2013-03-12 17:45:00,51.7,34.1,30.09,NW,322,5.0,11.0,51,0.00,,,0.07,Wunderground v.1.13,2013-03-12 21:45:00,
2013-03-12 17:50:00,51.4,33.9,30.09,NNW,330,7.0,11.0,51,0.00,,,0.07,Wunderground v.1.13,2013-03-12 21:50:00,
2013-03-12 17:56:00,51.1,34.1,30.09,NW,314,7.0,11.0,52,0.00,,,0.07,Wunderground v.1.13,2013-03-12 21:56:00,
2013-03-12 18:01:00,50.9,33.9,30.09,NW,323,7.0,12.0,52,0.00,,,0.07,Wunderground v.1.13,2013-03-12 22:01:00,
2013-03-12 18:07:00,50.7,33.7,30.09,NW,317,7.0,11.0,52,0.00,,,0.07,Wunderground v.1.13,2013-03-12 22:07:00,
2013-03-12 18:13:00,50.8,34.3,30.09,NW,312,7.0,12.0,53,0.00,,,0.07,Wunderground v.1.13,2013-03-12 22:13:00,
2013-03-12 18:18:00,50.8,34.3,30.09,NW,304,6.0,11.0,53,0.00,,,0.07,Wunderground v.1.13,2013-03-12 22:18:00,
2013-03-12 18:24:00,50.8,33.8,30.09,WNW,282,7.0,11.0,52,0.00,,,0.07,Wunderground v.1.13,2013-03-12 22:24:00,
2013-03-12 18:29:00,50.9,33.9,30.09,West,280,6.0,11.0,52,0.00,,,0.07,Wunderground v.1.13,2013-03-12 22:29:00,
2013-03-12 18:34:00,50.9,34.4,30.09,WNW,289,4.0,11.0,53,0.00,,,0.07,Wunderground v.1.13,2013-03-12 22:34:00,
2013-03-12 18:40:00,51.0,34.0,30.09,WNW,294,4.0,11.0,52,0.00,,,0.07,Wunderground v.1.13,2013-03-12 22:40:00,
2013-03-12 18:45:00,51.0,34.5,30.09,NW,305,4.0,4.0,53,0.00,,,0.07,Wunderground v.1.13,2013-03-12 22:45:00,
2013-03-12 18:50:00,51.0,34.5,30.09,NW,305,3.0,11.0,53,0.00,,,0.07,Wunderground v.1.13,2013-03-12 22:50:00,
2013-03-12 18:56:00,50.9,33.9,30.09,WNW,296,4.0,6.0,52,0.00,,,0.07,Wunderground v.1.13,2013-03-12 22:56:00,
2013-03-12 19:01:00,50.7,34.2,30.09,WNW,293,5.0,11.0,53,0.00,,,0.07,Wunderground v.1.13,2013-03-12 23:01:00,
2013-03-12 19:06:00,50.6,34.6,30.09,WNW,290,4.0,11.0,54,0.00,,,0.07,Wunderground v.1.13,2013-03-12 23:06:00,
2013-03-12 19:12:00,50.4,34.8,30.09,WNW,290,2.0,11.0,55,0.00,,,0.07,Wunderground v.1.13,2013-03-12 23:12:00,
2013-03-12 19:18:00,50.2,34.6,30.09,WNW,290,0.0,11.0,55,0.00,,,0.07,Wunderground v.1.13,2013-03-12 23:18:00,
2013-03-12 19:23:00,49.9,34.4,30.09,WNW,290,0.0,11.0,55,0.00,,,0.07,Wunderground v.1.13,2013-03-12 23:23:00,
2013-03-12 19:29:00,49.6,35.0,30.09,WNW,290,0.0,11.0,57,0.00,,,0.07,Wunderground v.1.13,2013-03-12 23:29:00,
2013-03-12 19:34:00,49.2,34.6,30.09,WNW,290,0.0,11.0,57,0.00,,,0.07,Wunderground v.1.13,2013-03-12 23:34:00,
2013-03-12 19:40:00,48.7,34.6,30.09,WNW,290,0.0,11.0,58,0.00,,,0.07,Wunderground v.1.13,2013-03-12 23:40:00,
2013-03-12 19:46:00,48.3,34.6,30.10,WNW,290,0.0,11.0,59,0.00,,,0.07,Wunderground v.1.13,2013-03-12 23:46:00,
2013-03-12 19:51:00,47.9,35.5,30.10,WNW,290,0.0,11.0,62,0.00,,,0.07,Wunderground v.1.13,2013-03-12 23:51:00,
2013-03-12 19:56:00,47.3,35.3,30.10,WNW,290,0.0,11.0,63,0.00,,,0.07,Wunderground v.1.13,2013-03-12 23:56:00,
2013-03-12 20:01:00,46.7,35.2,30.10,WNW,290,0.0,11.0,64,0.00,,,0.07,Wunderground v.1.13,2013-03-13 00:01:00,
2013-03-12 20:07:00,45.9,35.2,30.10,WNW,290,0.0,11.0,66,0.00,,,0.07,Wunderground v.1.13,2013-03-13 00:07:00,
2013-03-12 20:13:00,45.1,34.8,30.11,WNW,290,0.0,11.0,67,0.00,,,0.07,Wunderground v.1.13,2013-03-13 00:13:00,
2013-03-12 20:18:00,44.5,34.6,30.11,WNW,290,0.0,11.0,68,0.00,,,0.07,Wunderground v.1.13,2013-03-13 00:18:00,
2013-03-12 20:23:00,43.8,34.6,30.11,WNW,290,0.0,11.0,70,0.00,,,0.07,Wunderground v.1.13,2013-03-13 00:23:00,
2013-03-12 20:28:00,43.1,34.3,30.11,WNW,290,0.0,11.0,71,0.00,,,0.07,Wunderground v.1.13,2013-03-13 00:28:00,
2013-03-12 20:34:00,42.4,34.0,30.11,WNW,290,0.0,11.0,72,0.00,,,0.07,Wunderground v.1.13,2013-03-13 00:34:00,
2013-03-12 20:39:00,41.8,34.1,30.11,WNW,290,0.0,11.0,74,0.00,,,0.07,Wunderground v.1.13,2013-03-13 00:39:00,
2013-03-12 20:44:00,41.1,34.1,30.12,WNW,290,0.0,11.0,76,0.00,,,0.07,Wunderground v.1.13,2013-03-13 00:44:00,
2013-03-12 20:50:00,40.5,33.5,30.12,WNW,290,0.0,11.0,76,0.00,,,0.07,Wunderground v.1.13,2013-03-13 00:50:00,
2013-03-12 20:55:00,40.0,33.4,30.12,WNW,290,0.0,11.0,77,0.00,,,0.07,Wunderground v.1.13,2013-03-13 00:55:00,
2013-03-12 21:00:00,39.6,33.0,30.12,WNW,290,0.0,11.0,77,0.00,,,0.07,Wunderground v.1.13,2013-03-13 01:00:00,
2013-03-12 21:06:00,39.1,32.8,30.12,WNW,290,0.0,11.0,78,0.00,,,0.07,Wunderground v.1.13,2013-03-13 01:06:00,
2013-03-12 21:12:00,38.7,32.7,30.12,WNW,290,0.0,11.0,79,0.00,,,0.07,Wunderground v.1.13,2013-03-13 01:12:00,
2013-03-12 21:17:00,38.5,32.9,30.13,WNW,290,0.0,11.0,80,0.00,,,0.07,Wunderground v.1.13,2013-03-13 01:17:00,
2013-03-12 21:22:00,38.2,32.6,30.13,WNW,290,0.0,11.0,80,0.00,,,0.07,Wunderground v.1.13,2013-03-13 01:22:00,
2013-03-12 21:28:00,37.8,32.5,30.13,WNW,290,0.0,11.0,81,0.00,,,0.07,Wunderground v.1.13,2013-03-13 01:28:00,
2013-03-12 21:34:00,37.5,32.5,30.13,WNW,290,0.0,11.0,82,0.00,,,0.07,Wunderground v.1.13,2013-03-13 01:34:00,
2013-03-12 21:39:00,37.1,32.1,30.13,WNW,290,0.0,11.0,82,0.00,,,0.07,Wunderground v.1.13,2013-03-13 01:39:00,
2013-03-12 21:45:00,36.8,31.8,30.13,WNW,290,0.0,11.0,82,0.00,,,0.07,Wunderground v.1.13,2013-03-13 01:45:00,
2013-03-12 21:50:00,36.4,31.7,30.13,WNW,290,0.0,11.0,83,0.00,,,0.07,Wunderground v.1.13,2013-03-13 01:50:00,
2013-03-12 21:55:00,36.2,31.5,30.13,WNW,290,0.0,11.0,83,0.00,,,0.07,Wunderground v.1.13,2013-03-13 01:55:00,
2013-03-12 22:01:00,35.8,31.4,30.14,WNW,290,0.0,11.0,84,0.00,,,0.07,Wunderground v.1.13,2013-03-13 02:01:00,
2013-03-12 22:06:00,35.6,31.2,30.14,WNW,290,0.0,11.0,84,0.00,,,0.07,Wunderground v.1.13,2013-03-13 02:06:00,
2013-03-12 22:12:00,35.4,31.0,30.14,WNW,290,0.0,11.0,84,0.00,,,0.07,Wunderground v.1.13,2013-03-13 02:12:00,
2013-03-12 22:18:00,35.1,30.8,30.14,WNW,290,0.0,11.0,84,0.00,,,0.07,Wunderground v.1.13,2013-03-13 02:18:00,
2013-03-12 22:23:00,34.8,30.8,30.14,WNW,290,0.0,11.0,85,0.00,,,0.07,Wunderground v.1.13,2013-03-13 02:23:00,
2013-03-12 22:29:00,34.6,30.6,30.14,WNW,290,0.0,11.0,85,0.00,,,0.07,Wunderground v.1.13,2013-03-13 02:29:00,
2013-03-12 22:34:00,34.4,30.4,30.14,WNW,290,0.0,11.0,85,0.00,,,0.07,Wunderground v.1.13,2013-03-13 02:34:00,
2013-03-12 22:40:00,34.4,30.6,30.14,WNW,290,0.0,11.0,86,0.00,,,0.07,Wunderground v.1.13,2013-03-13 02:40:00,
2013-03-12 22:46:00,34.2,30.4,30.14,WNW,290,0.0,11.0,86,0.00,,,0.07,Wunderground v.1.13,2013-03-13 02:46:00,
2013-03-12 22:51:00,34.0,30.3,30.14,WNW,290,0.0,11.0,86,0.00,,,0.07,Wunderground v.1.13,2013-03-13 02:51:00,
2013-03-12 22:57:00,33.6,29.9,30.14,WNW,290,0.0,11.0,86,0.00,,,0.07,Wunderground v.1.13,2013-03-13 02:57:00,
2013-03-12 23:02:00,33.3,29.6,30.14,WNW,290,0.0,11.0,86,0.00,,,0.07,Wunderground v.1.13,2013-03-13 03:02:00,
2013-03-12 23:07:00,33.1,29.4,30.14,WNW,290,0.0,11.0,86,0.00,,,0.07,Wunderground v.1.13,2013-03-13 03:07:00,
2013-03-12 23:12:00,33.0,29.6,30.15,WNW,290,0.0,11.0,87,0.00,,,0.07,Wunderground v.1.13,2013-03-13 03:12:00,
2013-03-12 23:18:00,32.8,29.4,30.15,WNW,290,0.0,11.0,87,0.00,,,0.07,Wunderground v.1.13,2013-03-13 03:18:00,
2013-03-12 23:24:00,32.6,29.2,30.15,WNW,290,0.0,11.0,87,0.00,,,0.07,Wunderground v.1.13,2013-03-13 03:24:00,
2013-03-12 23:29:00,32.4,29.0,30.15,WNW,290,0.0,11.0,87,0.00,,,0.07,Wunderground v.1.13,2013-03-13 03:29:00,
2013-03-12 23:34:00,32.2,28.8,30.16,WNW,290,0.0,11.0,87,0.00,,,0.07,Wunderground v.1.13,2013-03-13 03:34:00,
2013-03-12 23:40:00,32.0,28.6,30.16,WNW,290,0.0,11.0,87,0.00,,,0.07,Wunderground v.1.13,2013-03-13 03:40:00,
2013-03-12 23:45:00,31.9,28.8,30.16,WNW,290,0.0,11.0,88,0.00,,,0.07,Wunderground v.1.13,2013-03-13 03:45:00,
2013-03-12 23:50:00,31.7,28.6,30.16,WNW,290,0.0,11.0,88,0.00,,,0.07,Wunderground v.1.13,2013-03-13 03:50:00,
2013-03-12 23:56:00,31.5,28.4,30.17,WNW,290,0.0,11.0,88,0.00,,,0.07,Wunderground v.1.13,2013-03-13 03:56:00,